Regional Weather Roundup
Issued by NWS

Home | Current Version | Previous Version | Graphics & Text | Print | Product List | Glossary On
Versions: 1 2 3 4 5 6 7 8 9 10 11 12 13 14 15 16 17 18 19 20 21 22 23 24 25 26 27 28 29 30 31 32 33 34 35 36 37 38 39 40 41 42 43 44 45 46 47 48 49 50
701
ASUS45 KCYS 010310
RWRWY

WYOMING REGIONAL WEATHER ROUNDUP
NATIONAL WEATHER SERVICE CHEYENNE WY
800 PM MST TUE FEB 28 2017

NOTE:  "FAIR" INDICATES FEW OR NO CLOUDS BELOW 12,000 FEET
WITH NO SIGNIFICANT WEATHER AND/OR OBSTRUCTIONS TO VISIBILITY.

WYZ001-010400-
YELLOWSTONE NATIONAL PARK

CITY           SKY/WX    TMP DP  RH WIND       PRES   REMARKS
LK YELLOWSTONE   N/A      9   4  80 W6        29.85R WCI  -1
W YELLOWSTONE  NOT AVBL

$$
WYZ002>013-054>058-071-098>099-010400-
NORTHERN WYOMING

CITY           SKY/WX    TMP DP  RH WIND       PRES   REMARKS
JACKSON        LGT SNOW  19  16  86 S26       29.92R WCI   1
CODY           FAIR      27   8  44 W18G30    29.84R WCI  14
GREYBULL       FAIR      31  17  56 NW18      29.85R WCI  19
WORLAND        FAIR      25  17  72 SW5       29.84R WCI  19
SHERIDAN       LGT SNOW  27  22  81 NW26      29.84R WCI  12
BUFFALO        MOCLDY    25  19  78 N30G36    29.82R WCI   8
GILLETTE       FAIR      23  12  62 W8        29.78R WCI  14
HULETT         MOCLDY    28  23  80 NW5       29.80R WCI  23
NEWCASTLE      FAIR      30  18  59 NW10      29.80R WCI  21

$$
WYZ014>020-022>026-101>103-010400-
CENTRAL WYOMING

CITY           SKY/WX    TMP DP  RH WIND       PRES   REMARKS
BIG PINEY      LGT SNOW  12   7  80 NW10      29.94R WCI  -1
PINEDALE       FAIR       1   0  92 NE8       29.94R WCI -12
DUBOIS         CLOUDY    16   5  62 W22G28    29.80R WCI  -2
LANDER         FAIR      20   1  43 W15       29.87R WCI   6
RIVERTON       FAIR      19   5  54 W14       29.87R WCI   6
CASPER         FAIR      20   8  60 W24G36    29.84R WCI   3
DOUGLAS        FAIR      21   9  59 W9        29.83R WCI  11

$$
WYZ021-027>030-104>119-010400-
SOUTHERN WYOMING

CITY           SKY/WX    TMP DP  RH WIND       PRES   REMARKS
EVANSTON       CLOUDY    16  11  80 W16       30.03R WCI   1
FORT BRIDGER   LGT SNOW  17  17  99 W21       30.04R WCI   0
ROCK SPRINGS   FAIR      17  12  80 SW16      29.98R WCI   2
DIXON            N/A      2  -1  83 CALM      30.02R
RAWLINS        FAIR      15   7  70 W20       29.91R WCI  -2
SARATOGA       FAIR      12   7  79 SW18      29.91S WCI  -5
LARAMIE        FAIR      14   4  64 W22       29.83R WCI  -4
CHEYENNE       FAIR      20   5  52 W22       29.85R WCI   3
TORRINGTON     FAIR      24  11  57 W14       29.85R WCI  12
PINE BLUFFS    FAIR      23  10  58 W16G24    29.89R WCI  10

$$




USA.gov is the U.S. government's official web portal to all federal, state and local government web resources and services.